Location: Stadlberg
(47.9690°N, 13.2636°E)
Time: 06:00:53
(UTC+01:00)

ISS - Visible Passes

Search period start: 15 December 2019 00:00
Search period end: 25 December 2019 00:00
Orbit: 411 x 421 km, 51.6° (Epoch: 15 December)

Date Brightness Start Highest point End Pass type
(mag) Time Alt. Az. Time Alt. Az. Time Alt. Az.
20 Dec -0.7 07:08:58 10° S 07:11:18 18° SE 07:13:40 10° E visible
21 Dec -0.3 06:21:49 10° SSE 06:22:59 11° SE 06:24:09 10° ESE visible
22 Dec -2.2 07:07:32 10° SW 07:10:40 39° SSE 07:13:48 10° ENE visible
23 Dec -1.5 06:19:25 10° SSW 06:22:14 26° SE 06:25:03 10° E visible
24 Dec -1.0 05:31:38 10° S 05:33:50 17° SE 05:36:04 10° E visible
24 Dec -3.7 07:06:50 10° WSW 07:10:10 83° SSE 07:13:30 10° ENE visible
